Flag for Germany Weather past 2 weeks in Schorndorf, Baden-Württemberg, Germany

Now
65 °F

Overcast.


Feels Like: 65 °F
Forecast: 58 / 76 °F
Wind: 2 mph from West

Location: Stuttgart-Echterdingen

Current Time: Jul 31, 2014 at 1:22:06 AM

Latest Report: Jul 31, 2014 at 1:00 AM


Visibility: 11 mi

Pressure: 29.95 "Hg

Humidity: 84%

Dew point: 60 °F

Location of SchorndorfLocation

Historic Weather in Schorndorf — Graph

°F

Schorndorf temperature yesterday

Maximum temperature yesterday: 72 °F (at 4:00 PM)
Minimum temperature yesterday: 62 °F (at 6:00 AM)
Average temperature yesterday: 65 °F

Past Weeks' High & Low Weather Summary

 TemperatureHumidityPressure
High91 °F (Jul 19, 4:00 PM)100% (Jul 23, 6:00 AM)30.20 "Hg (Jul 23, 6:00 AM)
Low56 °F (Jul 16, 6:00 AM)25% (Jul 18, 3:00 PM)29.72 "Hg (Jul 28, 6:00 PM)
Average69 °F73%29.93 "Hg
* Reported Midnight between Jul 15 and Jul 16 — Midnight between Jul 30 and Jul 31, Schorndorf, Weather by CustomWeather, © 2014

Note: Actual official high and low records may vary slightly from our data, if they occured in-between our weather recording intervals... More about our weather records

Advertising

Schorndorf weather history for previous 24 hours

 ConditionsComfort  
Time TempWeatherWind HumidityBarometerVisibility
12:00 AM
Jul 31
65 °FOvercast.5 mph86%29.94 "Hg11 mi
10:00 PM
Jul 30
65 °FOvercast.6 mph89%29.92 "Hg6 mi
9:00 PM65 °FOvercast.7 mph89%29.90 "Hg5 mi
8:00 PM66 °FOvercast.7 mph88%29.88 "Hg7 mi
7:00 PM67 °FOvercast.6 mph86%29.85 "Hg12 mi
6:00 PM68 °FOvercast.8 mph83%29.84 "Hg12 mi
5:00 PM70 °FOvercast.8 mph82%29.82 "Hg12 mi
4:00 PM72 °FOvercast.8 mph80%29.80 "Hg12 mi
3:00 PM70 °FOvercast.5 mph84%29.81 "Hg12 mi
2:00 PM68 °FOvercast.5 mph90%29.81 "Hg12 mi
1:00 PM66 °FLow clouds.3 mph94%29.82 "Hg6 mi
12:00 PM65 °FLight rain. Low clouds.5 mph94%29.81 "Hg7 mi
11:00 AM65 °FLight rain. Low clouds.2 mph94%29.80 "Hg4 mi
10:00 AM64 °FLow clouds.2 mph94%29.80 "Hg7 mi
9:00 AM64 °FLow clouds.1 mph95%29.79 "Hg9 mi
8:00 AM63 °FLow clouds.1 mph98%29.77 "Hg7 mi
7:00 AM62 °FRain. Low clouds.2 mph97%29.78 "Hg3 mi
6:00 AM62 °FLight rain. Low clouds.1 mph97%29.77 "Hg6 mi
4:00 AM63 °FLight rain. Low clouds.No wind95%29.77 "Hg4 mi
3:00 AM63 °FLight rain. Low clouds.1 mph95%29.78 "Hg6 mi
2:00 AM63 °FLow clouds.1 mph93%29.78 "Hg12 mi
1:00 AM64 °FLow clouds.1 mph93%29.78 "Hg12 mi
Weather by CustomWeather, © 2014

See weather overviewHow to use our weather pages